EW4993 Weather Reports


time (UTC)temp
F
wind
direction
speed
knots
gust
knots
rain 1hr
in
rain 24hr
in
rain mn
in
humidity
%
barometer
mb
20260904003037 86 153 11.3 17.4 0.00 0.00 0.00 65 986.3
20260904001517 87 146 11.3 17.4 0.00 0.00 0.00 64 986.2
20260904000017 87 144 10.4 17.4 0.00 0.00 0.00 64 986.2
20260903234558 88 150 10.4 16.5 0.00 0.00 0.00 64 985.9
20260903233058 88 186 15.6 21.7 0.00 0.00 0.00 62 985.9
20260903231546 89 166 15.6 21.7 0.00 0.00 0.00 60 985.8
20260903230039 89 177 17.4 22.6 0.00 0.00 0.00 60 985.6
20260903224523 90 148 14.8 20.0 0.00 0.00 0.00 65 985.6
20260903223022 90 150 13.0 20.9 0.00 0.00 0.00 65 985.5
20260903221509 91 136 13.9 21.7 0.00 0.00 0.00 64 985.5
20260903220007 91 144 16.5 20.0 0.00 0.00 0.00 62 985.5
20260903214506 91 146 12.2 18.2 0.00 0.00 0.00 62 985.5
20260903213104 90 130 12.2 17.4 0.00 0.00 0.00 63 985.8
20260903211504 91 145 13.0 20.0 0.00 0.00 0.00 63 985.8
20260903210003 92 146 10.4 16.5 0.00 0.00 0.00 62 985.9
20260903204606 92 165 12.2 17.4 0.00 0.00 0.00 62 986.0
20260903203056 91 146 12.2 17.4 0.00 0.00 0.00 62 986.4
20260903201536 92 122 7.8 16.5 0.00 0.00 0.00 60 986.7
20260903200035 92 137 7.0 13.0 0.00 0.00 0.00 58 986.7
20260903194514 92 134 6.1 11.3 0.00 0.00 0.00 57 986.9
20260903193016 91 169 6.1 12.2 0.00 0.00 0.00 59 987.0
20260903191603 91 157 6.1 13.0 0.00 0.00 0.00 59 987.3
20260903190055 90 165 9.6 11.3 0.00 0.00 0.00 60 987.6
20260903184558 90 134 6.1 9.6 0.00 0.00 0.00 62 987.8
20260903183056 89 133 7.0 10.4 0.00 0.00 0.00 62 987.9
20260903181550 89 165 5.2 8.7 0.00 0.00 0.00 61 988.0
20260903180048 89 186 7.0 9.6 0.00 0.00 0.00 62 988.3
20260903174547 88 178 6.1 9.6 0.00 0.00 0.00 64 988.5
20260903173045 88 173 8.7 11.3 0.00 0.00 0.00 64 988.6
20260903171531 88 182 7.8 10.4 0.00 0.00 0.00 64 988.8
20260903170040 88 157 7.0 10.4 0.00 0.00 0.00 64 988.8
20260903164531 87 191 5.2 8.7 0.00 0.00 0.00 64 989.0
20260903163036 87 178 6.1 8.7 0.00 0.00 0.00 64 989.1
20260903161525 87 213 5.2 8.7 0.00 0.00 0.00 65 988.9
20260903160023 87 223 7.0 14.8 0.00 0.00 0.00 65 988.6
20260903154520 86 218 7.8 13.9 0.00 0.00 0.00 66 988.3
20260903153017 86 220 8.7 15.6 0.00 0.00 0.00 67 988.1
20260903151608 85 242 13.0 16.5 0.00 0.00 0.00 67 988.1
20260903150101 84 204 9.6 13.9 0.00 0.00 0.00 67 988.1
20260903144538 84 227 13.9 19.1 0.00 0.00 0.00 66 988.0
20260903143038 83 221 9.6 14.8 0.00 0.00 0.00 63 988.0
20260903141533 82 223 10.4 14.8 0.00 0.00 0.00 61 988.0
20260903140029 82 247 8.7 13.9 0.00 0.00 0.00 59 988.1
20260903134528 82 219 7.8 13.9 0.00 0.00 0.00 57 988.1
20260903133026 81 232 10.4 15.6 0.00 0.00 0.00 56 988.2
20260903131523 81 227 9.6 14.8 0.00 0.00 0.00 53 988.2
20260903130024 80 205 7.8 13.0 0.00 0.00 0.00 52 988.1
20260903124512 80 229 9.6 13.9 0.00 0.00 0.00 51 988.0
20260903123008 80 233 8.7 14.8 0.00 0.00 0.00 51 987.8
20260903121511 80 230 9.6 14.8 0.00 0.00 0.00 50 987.7
20260903120007 80 224 9.6 12.2 0.00 0.00 0.00 50 987.7
20260903114506 80 218 8.7 11.3 0.00 0.00 0.00 49 987.6
20260903113004 80 221 7.8 13.9 0.00 0.00 0.00 48 987.6
20260903111503 80 221 7.0 9.6 0.00 0.00 0.00 48 987.6
20260903110003 80 196 7.0 10.4 0.00 0.00 0.00 48 987.8
20260903104548 80 211 6.1 8.7 0.00 0.00 0.00 49 987.6
20260903103043 80 210 6.1 10.4 0.00 0.00 0.00 49 987.5
20260903101540 80 215 7.0 13.9 0.00 0.00 0.00 50 987.4
20260903100029 80 226 7.8 13.9 0.00 0.00 0.00 51 987.4
20260903094505 80 222 8.7 13.9 0.00 0.00 0.00 53 987.4
20260903093003 80 218 8.7 13.9 0.00 0.00 0.00 54 987.4
20260903091605 80 226 9.6 15.6 0.00 0.00 0.00 55 987.4
20260903090041 80 234 7.8 14.8 0.00 0.00 0.00 55 987.6
20260903084541 80 226 7.8 12.2 0.00 0.00 0.00 56 987.7
20260903083025 80 221 7.0 13.0 0.00 0.00 0.00 57 987.7
20260903081521 80 231 7.0 10.4 0.00 0.00 0.00 59 987.7
20260903080010 79 217 6.1 8.7 0.00 0.00 0.00 59 987.8
20260903074502 79 221 6.1 8.7 0.00 0.00 0.00 59 987.7
20260903073050 79 208 6.1 9.6 0.00 0.00 0.00 60 987.7
20260903071545 79 198 6.1 8.7 0.00 0.00 0.00 61 987.7
20260903070032 79 208 5.2 7.8 0.00 0.00 0.00 61 987.9
20260903064531 79 208 6.1 8.7 0.00 0.00 0.00 62 988.0
20260903063031 79 202 5.2 8.7 0.00 0.00 0.00 64 988.2
20260903061531 79 178 4.3 7.8 0.00 0.00 0.00 65 988.3
20260903060029 79 188 6.1 8.7 0.00 0.00 0.00 66 988.3
20260903054529 80 176 7.0 9.6 0.00 0.00 0.00 67 988.3
20260903053030 80 186 7.0 13.0 0.00 0.00 0.00 67 988.3
20260903051527 81 178 7.0 10.4 0.00 0.00 0.00 68 988.3
20260903050020 81 183 5.2 8.7 0.00 0.00 0.00 68 988.2
20260903044517 81 188 5.2 9.6 0.00 0.00 0.00 68 988.1
20260903043056 82 178 7.8 9.6 0.00 0.00 0.00 68 988.1
20260903041609 82 159 4.3 7.8 0.00 0.00 0.00 68 988.2
20260903040113 82 162 4.3 9.6 0.00 0.00 0.00 68 988.2
20260903034557 83 138 7.0 11.3 0.00 0.00 0.00 68 988.3
20260903033054 83 121 5.2 11.3 0.00 0.00 0.00 67 988.3
20260903031553 83 125 3.5 7.8 0.00 0.00 0.00 67 988.0
20260903030052 84 101 3.5 10.4 0.00 0.00 0.00 67 987.6
20260903024552 84 109 3.5 9.6 0.00 0.00 0.00 66 987.4
20260903023035 86 108 7.0 11.3 0.00 0.00 0.00 64 987.1
20260903021534 88 101 7.0 10.4 0.00 0.00 0.00 57 986.8
20260903020023 89 125 0.9 6.1 0.00 0.00 0.00 51 986.6
20260903014522 91 136 2.6 7.0 0.00 0.00 0.00 48 986.3
20260903013021 92 163 2.6 6.1 0.00 0.00 0.00 48 986.1
20260903011521 93 170 0.9 4.3 0.00 0.00 0.00 46 985.9
20260903010019 94 196 4.3 7.0 0.00 0.00 0.00 46 985.9
20260903004519 94 71 0.0 3.5 0.00 0.00 0.00 44 985.8